7L2IWN-13 Weather Reports


Display with metric or nautical units.
time (UTC)temp
F
wind
direction
speed
MPH
gust
MPH
rain 1hr
in
rain 24hr
in
rain mn
in
humidity
%
barometer
mb
20260503022221 67 57 2.0 6.0 0.00 0.00 0.00 62 1009.6
20260503021023 67 128 2.0 6.0 0.00 0.00 0.00 63 1010.3
20260503015821 66 62 0.0 3.0 0.00 0.00 0.00 64 1010.3
20260503014620 67 32 2.0 3.0 0.00 0.00 0.00 65 1010.6
20260503013420 65 18 0.0 2.0 0.00 0.00 0.00 67 1010.7
20260503012219 64 82 0.0 2.0 0.00 0.00 0.00 69 1011.0
20260503011021 63 271 0.0 0.0 0.00 0.00 0.00 69 1011.2
20260503005821 62 251 0.0 0.0 0.00 0.00 0.00 72 1011.4
20260503004622 60 262 1.0 1.0 0.00 0.00 0.00 75 1011.3
20260503003421 59 300 1.0 1.0 0.00 0.00 0.00 81 1011.4
20260503002221 59 353 0.0 1.0 0.00 0.00 0.00 84 1011.5
20260503001023 59 9 1.0 3.0 0.00 0.00 0.00 84 1011.9
20260502235821 58 123 1.0 2.0 0.00 0.00 0.00 83 1012.3
20260502234621 57 257 1.0 2.0 0.00 0.00 0.00 87 1012.6
20260502233421 57 244 0.0 0.0 0.00 0.00 0.00 87 1012.5
20260502232221 57 188 0.0 0.0 0.00 0.00 0.00 86 1012.3
20260502224621 55 42 1.0 2.0 0.00 0.00 0.00 90 1012.4
20260502223423 54 13 0.0 0.0 0.00 0.00 0.00 91 1012.8
20260502222221 55 71 0.0 0.0 0.00 0.00 0.00 93 1012.8
20260502221022 54 91 0.0 0.0 0.00 0.00 0.00 94 1012.8
20260502215821 53 62 0.0 0.0 0.00 0.00 0.00 94 1012.7
20260502214621 53 185 0.0 0.0 0.00 0.00 0.00 94 1012.5
20260502213420 53 55 0.0 0.0 0.00 0.00 0.00 94 1012.6
20260502212222 53 70 0.0 0.0 0.00 0.00 0.00 94 1012.4
20260502211020 52 70 0.0 0.0 0.00 0.00 0.00 95 1012.5
20260502205821 52 42 0.0 0.0 0.00 0.00 0.00 96 1012.2
20260502204621 52 41 0.0 0.0 0.00 0.00 0.00 96 1012.1
20260502203419 52 111 0.0 0.0 0.00 0.00 0.00 95 1011.8
20260502202220 51 122 0.0 0.0 0.00 0.00 0.00 96 1011.8
20260502201021 52 201 0.0 0.0 0.00 0.00 0.00 95 1011.9
20260502195820 52 192 0.0 1.0 0.00 0.00 0.00 95 1011.8
20260502194620 52 209 1.0 2.0 0.00 0.00 0.00 95 1011.8
20260502193419 52 236 0.0 0.0 0.00 0.00 0.00 94 1011.5
20260502192219 52 237 0.0 1.0 0.00 0.00 0.00 93 1011.7
20260502191021 52 58 0.0 0.0 0.00 0.00 0.00 92 1011.4
20260502185822 52 49 1.0 2.0 0.00 0.00 0.00 92 1011.5
20260502184621 52 56 0.0 1.0 0.00 0.00 0.00 94 1011.8
20260502183421 52 243 0.0 0.0 0.00 0.00 0.00 93 1011.6
20260502182221 52 244 1.0 2.0 0.00 0.00 0.00 93 1011.5
20260502181020 52 175 0.0 0.0 0.00 0.00 0.00 91 1011.6
20260502163422 52 240 0.0 0.0 0.00 0.00 0.00 89 1011.7
20260502161021 51 253 1.0 2.0 0.00 0.00 0.00 88 1011.6
20260502152222 52 291 0.0 0.0 0.00 0.00 0.00 88 1012.0
20260502151021 52 249 1.0 1.0 0.00 0.00 0.00 87 1011.9
20260502123421 57 323 1.0 2.0 0.00 0.00 0.00 76 1011.1
20260502122221 58 190 1.0 2.0 0.00 0.00 0.00 75 1011.0
20260502121021 58 229 1.0 2.0 0.00 0.00 0.00 73 1011.1
20260502115821 58 272 2.0 3.0 0.00 0.00 0.00 73 1010.8
20260502114620 58 235 2.0 5.0 0.00 0.00 0.00 73 1011.0
20260502113420 59 268 2.0 3.0 0.00 0.00 0.00 71 1010.5
20260502112220 60 226 1.0 3.0 0.00 0.00 0.00 69 1010.5
20260502111021 60 260 1.0 2.0 0.00 0.00 0.00 69 1010.2
20260502105821 61 274 1.0 2.0 0.00 0.00 0.00 66 1010.1
20260502104620 62 260 1.0 2.0 0.00 0.00 0.00 65 1009.6
20260502103424 62 234 2.0 2.0 0.00 0.00 0.00 62 1009.4
20260502101020 63 228 2.0 5.0 0.00 0.00 0.00 63 1009.3
20260502091020 67 240 3.0 5.0 0.00 0.20 0.00 58 1008.5
20260502071020 74 52 12.0 16.0 0.00 0.20 0.00 34 1006.3
20260502065821 75 45 10.0 14.0 0.00 0.20 0.00 34 1006.2
20260502064621 78 53 14.0 18.0 0.00 0.20 0.00 33 1005.7
20260502063420 79 328 1.0 3.0 0.00 0.20 0.00 27 1005.7
20260502062221 78 345 6.0 9.0 0.00 0.20 0.00 28 1005.5
20260502061020 79 357 1.0 3.0 0.00 0.20 0.00 29 1005.2
20260502055820 80 27 3.0 13.0 0.00 0.20 0.00 28 1005.3
20260502054620 79 358 5.0 9.0 0.00 0.20 0.00 29 1005.2
20260502053420 79 319 1.0 5.0 0.00 0.20 0.00 27 1005.0
20260502052220 79 3 7.0 12.0 0.00 0.20 0.00 28 1005.0
20260502051021 78 43 1.0 7.0 0.00 0.20 0.00 29 1005.1
20260502044620 77 78 7.0 17.0 0.00 0.20 0.00 29 1004.9
20260502043420 78 352 9.0 15.0 0.00 0.20 0.00 28 1005.2
20260502042221 77 226 10.0 18.0 0.00 0.20 0.00 28 1005.0
20260502041021 77 22 2.0 5.0 0.00 0.20 0.00 27 1005.3
20260502035821 76 248 7.0 13.0 0.00 0.20 0.00 27 1005.0
20260502034620 76 302 16.0 26.0 0.00 0.20 0.00 28 1005.5
20260502033421 75 296 17.0 32.0 0.00 0.20 0.00 28 1005.5
20260502032221 74 332 12.0 20.0 0.00 0.20 0.00 30 1005.2
20260502031020 75 297 10.0 15.0 0.00 0.20 0.00 30 1005.2
20260502025820 75 300 16.0 29.0 0.00 0.20 0.00 31 1005.1
20260502024621 74 281 17.0 23.0 0.00 0.20 0.00 30 1005.1